Satellite-Ground Cal/Val Site Overpasses Predictions

Prediction of Satellite NPP Overpassing Cal/Val Site: Antarctic Dome C

Ground Cal/Val Site Location: Latitude: -75.10, Longitude: 123.35; Satellite-Ground Site NADIR distance within 100 km.

Table of predicted overpasses for the next 14.0 days since TLE Epoch: 2/10/2024
Interval Starting Time Ending Time Minimum Distance Time Minimum Distance (km)
1 02/10/2024 07:25:49 02/10/2024 07:26:16 02/10/2024 07:26:02 35.63
2 02/12/2024 15:08:16 02/12/2024 15:08:21 02/12/2024 15:08:18 97.48
3 02/13/2024 14:49:14 02/13/2024 14:49:43 02/13/2024 14:49:29 14.11
4 02/15/2024 07:32:03 02/15/2024 07:32:32 02/15/2024 07:32:17 2.41
5 02/18/2024 14:55:28 02/18/2024 14:55:56 02/18/2024 14:55:42 22.33
6 02/19/2024 14:36:45 02/19/2024 14:37:01 02/19/2024 14:36:53 84.75
7 02/20/2024 07:38:18 02/20/2024 07:38:45 02/20/2024 07:38:32 36.73
8 02/21/2024 07:19:31 02/21/2024 07:19:51 02/21/2024 07:19:41 73.42
